Regional Weather Roundup
Issued by NWS Kansas City/Pleasant Hill, MO

Home | Current Version | Previous Version | Graphics & Text | Print | Product List | Glossary Off
Versions: 1 2 3 4 5 6 7 8 9 10 11 12 13 14 15 16 17 18 19 20 21 22 23 24 25 26 27 28 29 30 31 32 33 34 35 36 37 38 39 40 41 42 43 44 45 46 47 48 49 50

000
ASUS43 KEAX 032110
RWREAX

WEATHER ROUNDUP FOR EASTERN KANSAS AND NORTHWEST MISSOURI
NATIONAL WEATHER SERVICE KANSAS CITY/PLEASANT HILL MO
400 PM CDT TUE MAY 03 2016

KSZ040-057-103>105-MOZ028-029-037-043-032200-
...KANSAS CITY METROPOLITAN AREA...

CITY           SKY/WX    TMP DP  RH WIND       PRES   REMARKS
K.C. INTL      MOSUNNY   67  39  35 VRB3      29.99F
K.C. DOWNTOWN  MOSUNNY   70  40  33 VRB5      29.98F
LEES SUMMIT    SUNNY     66  39  37 NW7       30.00F
OLATHE - IXD   SUNNY     68  41  37 NW9       30.01F
OLATHE - OJC   MOSUNNY   65  38  36 W7        30.01F
LAWRENCE       SUNNY     69  43  38 VRB5      30.00F

$$

MOZ001>008-011>017-020>025-030>033-038>040-044>046-053-054-032200-
...NORTHERN AND CENTRAL MISSOURI...

CITY           SKY/WX    TMP DP  RH WIND       PRES   REMARKS
ST. JOSEPH     MOSUNNY   68  40  35 W5        29.98F
MOSBY          MOCLDY    68  36  30 SW7       29.99F
WHITEMAN AFB   MOSUNNY   67  41  38 NW10      29.98F
CLINTON        PTSUNNY   66  43  42 NW3       30.02F
SEDALIA        MOSUNNY   67  43  41 NW9       30.01F
WARSAW         NOT AVBL
CHILLICOTHE      N/A     69  43  38 VRB7      29.97F
KIRKSVILLE     PTSUNNY   65  40  39 NW13G18   29.95F

$$

MOZ041-047>049-056>058-063>065-088>090-097-032200-
...EASTERN AND SOUTHERN MISSOURI...

CITY           SKY/WX    TMP DP  RH WIND       PRES   REMARKS
ST. LOUIS INTL PTSUNNY   63  43  48 NW6       29.98F
SPIRIT OF STL  CLOUDY    62  45  53 W8        29.97F
COLUMBIA       PTSUNNY   67  40  37 NW13      29.98F
JEFFERSON CITY MOSUNNY   65  40  39 N8        29.98F
ROLLA          PTSUNNY   61  45  55 NW7       29.98F
OSAGE BEACH    PTSUNNY   64  37  36 N6        30.01F
SPRINGFIELD    MOSUNNY   63  40  42 NW9       30.02F
JOPLIN         MOSUNNY   65  43  44 NW6       30.04F
WEST PLAINS    PTSUNNY   63  38  39 NW12      30.00F

$$

IAZ060-094-KSZ022-034>040-054-083-096-NEZ052-066-093-032200-
...KANSAS...SOUTHEAST NEBRASKA AND IOWA...

CITY           SKY/WX    TMP DP  RH WIND       PRES   REMARKS
TOPEKA         PTSUNNY   70  42  36 SW9       29.99F
MANHATTAN      MOSUNNY   71  41  33 CALM      29.99F
EMPORIA        PTSUNNY   67  41  38 W3        30.00F
CHANUTE        MOSUNNY   68  43  40 W9        30.02F
WICHITA        PTSUNNY   69  43  38 SW7       30.01F
OMAHA          PTSUNNY   71  41  33 W15G24    29.95F
LINCOLN        MOSUNNY   72  40  31 W9        29.99F
FALLS CITY     MOSUNNY   69  43  38 NW10      29.98F
LAMONI         MOSUNNY   66  44  45 W14       29.96F
DES MOINES     CLOUDY    69  39  33 W18G26    29.91F

$$




USA.gov is the U.S. government's official web portal to all federal, state and local government web resources and services.